Home   Weather   Ittoqqortoormiit   Past weeks

Flag for Greenland Past Weather in Ittoqqortoormiit, Greenland — Yesterday and Last 2 Weeks

Now
37 °F

Chilly.


Feels Like: 30 °F
Forecast: 36 / 39 °F
Wind: 10 mph from Southeast

Location: Daneborg

Current Time: Jul 21, 2017 at 2:50:27 pm

Latest Report: Jul 21, 2017 at 1:00 pm


Visibility: N/A

Pressure: 29.70 "Hg

Humidity: 95%

Dew Point: 36 °F

Location of IttoqqortoormiitLocation

Past Weather in Ittoqqortoormiit — Graph

°F

Ittoqqortoormiit Temperature Yesterday

Maximum temperature yesterday: 46 °F (at 2:00 pm)
Minimum temperature yesterday: 34 °F (at 12:00 am)
Average temperature yesterday: 39 °F

High & Low Weather Summary for the Past Weeks

 TemperatureHumidityPressure
High52 °F (Jul 17, 6:00 pm)100% (Jul 13, 11:00 pm)29.84 "Hg (Jul 13, 11:00 pm)
Low26 °F (Jul 14, 4:00 am)48% (Jul 6, 5:00 pm)29.38 "Hg (Jul 17, 7:00 am)
Average37 °F86%29.67 "Hg
* Reported Jul 6 1:00 pm — Jul 21 1:00 pm, Ittoqqortoormiit. Weather by CustomWeather, © 2017

Note: Actual official high and low records may vary slightly from our data, if they occured in-between our weather recording intervals... More about our weather records

Advertising

Ittoqqortoormiit Weather History for the Previous 24 Hours

Scroll right to see more
 ConditionsComfort  
Time TempWeatherWind HumidityBarometerVisibility
1:00 pm
Fri, Jul 21
37 °FChilly.10 mph95%29.70 "HgN/A
12:00 pm36 °FChilly.13 mph97%29.70 "HgN/A
11:00 am39 °FChilly.7 mph95%29.70 "HgN/A
10:00 am37 °FChilly.5 mph98%29.69 "HgN/A
9:00 am37 °FChilly.5 mph96%29.68 "HgN/A
8:00 amN/A 9 mphN/AN/AN/A
7:00 am37 °FChilly.5 mph95%29.67 "HgN/A
6:00 am36 °FChilly.8 mph97%29.65 "HgN/A
5:00 am36 °FChilly.2 mph96%29.64 "HgN/A
4:00 am36 °FChilly.3 mph96%29.64 "HgN/A
3:00 am36 °FChilly.7 mph96%29.65 "HgN/A
2:00 am36 °FChilly.2 mph96%29.63 "HgN/A
1:00 am36 °FChilly.9 mph97%29.63 "HgN/A
12:00 am35 °FChilly.10 mph98%29.62 "HgN/A
11:00 pm
Thu, Jul 20
35 °FChilly.10 mph97%29.61 "HgN/A
10:00 pm36 °FChilly.12 mph94%29.60 "HgN/A
9:00 pm36 °FChilly.13 mph94%29.59 "HgN/A
8:00 pm36 °FChilly.14 mph93%29.58 "HgN/A
7:00 pm35 °FChilly.15 mph95%29.57 "HgN/A
6:00 pm39 °FChilly.17 mph87%29.55 "HgN/A
5:00 pm42 °FQuite cool.15 mph80%29.54 "HgN/A
4:00 pm44 °FQuite cool.18 mph75%29.53 "HgN/A
3:00 pm45 °FCool.20 mph70%29.50 "HgN/A
2:00 pm46 °FCool.16 mph70%29.50 "HgN/A
Weather by CustomWeather, © 2017

See weather overviewHow to use our weather pages